owner,sensor,date,latitude,longitude,vertical_datum,direction_of_sea_water_velocity,sea_water_speed,upward_sea_water_velocity,qcFlag 
TABS,ioos:station:wmo:42050:1,2009-05-01T00:00:00Z,28.8425,-94.2433,2.0,235.6427821,21.21039839,-99999.0,'11111222,11111222,99999999' 
TABS,ioos:station:wmo:42050:1,2009-05-01T00:30:00Z,28.8425,-94.2433,2.0,247.8742691,23.97550834,-99999.0,'11111222,11111222,99999999' 
TABS,ioos:station:wmo:42050:1,2009-05-01T01:00:00Z,28.8425,-94.2433,2.0,236.4430841,23.80779704,-99999.0,'11111222,11111222,99999999' 
TABS,ioos:station:wmo:42050:1,2009-05-01T01:30:00Z,28.8425,-94.2433,2.0,214.5981044,23.96883393,-99999.0,'11111222,11111222,99999999' 
TABS,ioos:station:wmo:42050:1,2009-05-01T02:00:00Z,28.8425,-94.2433,2.0,236.9999429,24.86069388,-99999.0,'11111222,11111222,99999999' 
TABS,ioos:station:wmo:42050:1,2009-05-01T02:30:00Z,28.8425,-94.2433,2.0,239.3223708,23.32409913,-99999.0,'11111222,11111222,99999999' 
TABS,ioos:station:wmo:42050:1,2009-05-01T03:00:00Z,28.8425,-94.2433,2.0,233.8751294,21.6778343,-99999.0,'11111222,11111222,99999999' 
TABS,ioos:station:wmo:42050:1,2009-05-01T03:30:00Z,28.8425,-94.2433,2.0,235.9787639,23.056498,-99999.0,'11111222,11111222,99999999' 
TABS,ioos:station:wmo:42050:1,2009-05-01T04:00:00Z,28.8425,-94.2433,2.0,247.0709184,23.97419446,-99999.0,'11111222,11111222,99999999' 
TABS,ioos:station:wmo:42050:1,2009-05-01T04:30:00Z,28.8425,-94.2433,2.0,240.8021613,20.64280262,-99999.0,'11111222,11111222,99999999' 
TABS,ioos:station:wmo:42050:1,2009-05-01T05:00:00Z,28.8425,-94.2433,2.0,243.3418787,22.11026911,-99999.0,'11111222,11111222,99999999' 
TABS,ioos:station:wmo:42050:1,2009-05-01T05:30:00Z,28.8425,-94.2433,2.0,245.8320211,20.41975759,-99999.0,'11111222,11111222,99999999' 
TABS,ioos:station:wmo:42050:1,2009-05-01T06:00:00Z,28.8425,-94.2433,2.0,238.9536288,17.91647566,-99999.0,'11111222,11111222,99999999' 
TABS,ioos:station:wmo:42050:1,2009-05-01T06:30:00Z,28.8425,-94.2433,2.0,230.2481099,19.01604586,-99999.0,'11111222,11111222,99999999' 
TABS,ioos:station:wmo:42050:1,2009-05-01T07:00:00Z,28.8425,-94.2433,2.0,201.1824763,19.26144335,-99999.0,'11111222,11111222,99999999' 
TABS,ioos:station:wmo:42050:1,2009-05-01T07:30:00Z,28.8425,-94.2433,2.0,214.1757565,12.42573137,-99999.0,'11111222,11111222,99999999' 
TABS,ioos:station:wmo:42050:1,2009-05-01T08:00:00Z,28.8425,-94.2433,2.0,218.6839301,10.99151036,-99999.0,'11111222,11111222,99999999' 
TABS,ioos:station:wmo:42050:1,2009-05-01T08:30:00Z,28.8425,-94.2433,2.0,219.5953678,10.13546743,-99999.0,'11111222,11111222,99999999' 
TABS,ioos:station:wmo:42050:1,2009-05-01T09:00:00Z,28.8425,-94.2433,2.0,260.8268652,8.782306075,-99999.0,'11133222,11111222,99999999' 
TABS,ioos:station:wmo:42050:1,2009-05-01T09:30:00Z,28.8425,-94.2433,2.0,244.0336671,4.704944208,-99999.0,'11133222,11111222,99999999' 
TABS,ioos:station:wmo:42050:1,2009-05-01T10:00:00Z,28.8425,-94.2433,2.0,233.3386843,2.194014585,-99999.0,'11133222,11111222,99999999' 
TABS,ioos:station:wmo:42050:1,2009-05-01T10:30:00Z,28.8425,-94.2433,2.0,300.8942749,5.628587745,-99999.0,'11133222,11111222,99999999' 
TABS,ioos:station:wmo:42050:1,2009-05-01T11:00:00Z,28.8425,-94.2433,2.0,15.31494536,3.369658736,-99999.0,'11133222,11111222,99999999' 
TABS,ioos:station:wmo:42050:1,2009-05-01T11:30:00Z,28.8425,-94.2433,2.0,235.8711118,8.697953782,-99999.0,'11133222,11111222,99999999' 
TABS,ioos:station:wmo:42050:1,2009-05-01T12:00:00Z,28.8425,-94.2433,2.0,224.8010867,8.160061274,-99999.0,'11133222,11111222,99999999' 
TABS,ioos:station:wmo:42050:1,2009-05-01T12:30:00Z,28.8425,-94.2433,2.0,241.0205934,11.7855929,-99999.0,'11111222,11111222,99999999' 
TABS,ioos:station:wmo:42050:1,2009-05-01T13:00:00Z,28.8425,-94.2433,2.0,231.8115962,10.4327609,-99999.0,'11111222,11111222,99999999' 
TABS,ioos:station:wmo:42050:1,2009-05-01T13:30:00Z,28.8425,-94.2433,2.0,239.9885692,9.076959843,-99999.0,'11133222,11111222,99999999' 
TABS,ioos:station:wmo:42050:1,2009-05-01T14:00:00Z,28.8425,-94.2433,2.0,262.5159078,12.28464082,-99999.0,'11111222,11111222,99999999' 
TABS,ioos:station:wmo:42050:1,2009-05-01T14:30:00Z,28.8425,-94.2433,2.0,246.3994444,7.868074733,-99999.0,'11133222,11111222,99999999' 
TABS,ioos:station:wmo:42050:1,2009-05-01T15:00:00Z,28.8425,-94.2433,2.0,283.2589681,10.90055503,-99999.0,'11111222,11111222,99999999' 
TABS,ioos:station:wmo:42050:1,2009-05-01T15:30:00Z,28.8425,-94.2433,2.0,267.9541754,12.32785464,-99999.0,'11111222,11111222,99999999' 
TABS,ioos:station:wmo:42050:1,2009-05-01T16:00:00Z,28.8425,-94.2433,2.0,260.384443,10.47718474,-99999.0,'11111222,11111222,99999999' 
TABS,ioos:station:wmo:42050:1,2009-05-01T16:30:00Z,28.8425,-94.2433,2.0,274.8578791,8.620962823,-99999.0,'11133222,11111222,99999999' 
TABS,ioos:station:wmo:42050:1,2009-05-01T17:00:00Z,28.8425,-94.2433,2.0,270.7173938,8.790688255,-99999.0,'11133222,11111222,99999999' 
TABS,ioos:station:wmo:42050:1,2009-05-01T17:30:00Z,28.8425,-94.2433,2.0,283.7461812,9.090352028,-99999.0,'11133222,11111222,99999999' 
TABS,ioos:station:wmo:42050:1,2009-05-01T18:00:00Z,28.8425,-94.2433,2.0,271.8480269,9.925159948,-99999.0,'11133222,11111222,99999999' 
TABS,ioos:station:wmo:42050:1,2009-05-01T18:30:00Z,28.8425,-94.2433,2.0,300.964105,9.212903994,-99999.0,'11133222,11111222,99999999' 
TABS,ioos:station:wmo:42050:1,2009-05-01T19:00:00Z,28.8425,-94.2433,2.0,252.3984389,3.042433237,-99999.0,'11133222,11111222,99999999' 
TABS,ioos:station:wmo:42050:1,2009-05-01T19:30:00Z,28.8425,-94.2433,2.0,307.9562756,10.55189556,-99999.0,'11111222,11111222,99999999' 
TABS,ioos:station:wmo:42050:1,2009-05-01T20:00:00Z,28.8425,-94.2433,2.0,312.078248,6.103195884,-99999.0,'11133222,11111222,99999999' 
TABS,ioos:station:wmo:42050:1,2009-05-01T20:30:00Z,28.8425,-94.2433,2.0,309.2108008,10.72494755,-99999.0,'11111222,11111222,99999999' 
TABS,ioos:station:wmo:42050:1,2009-05-01T21:00:00Z,28.8425,-94.2433,2.0,342.077017,10.26832508,-99999.0,'11111222,11111222,99999999' 
TABS,ioos:station:wmo:42050:1,2009-05-01T21:30:00Z,28.8425,-94.2433,2.0,324.9770211,7.509900132,-99999.0,'11133222,11111222,99999999' 
TABS,ioos:station:wmo:42050:1,2009-05-01T22:00:00Z,28.8425,-94.2433,2.0,309.210591,7.640373028,-99999.0,'11133222,11111222,99999999' 
TABS,ioos:station:wmo:42050:1,2009-05-01T22:30:00Z,28.8425,-94.2433,2.0,296.4879311,6.614295125,-99999.0,'11133222,11111222,99999999' 
TABS,ioos:station:wmo:42050:1,2009-05-01T23:00:00Z,28.8425,-94.2433,2.0,288.3392468,5.657322688,-99999.0,'11133222,11111222,99999999' 
TABS,ioos:station:wmo:42050:1,2009-05-01T23:30:00Z,28.8425,-94.2433,2.0,302.8434922,9.569623817,-99999.0,'11133222,11111222,99999999' 
TABS,ioos:station:wmo:42050:1,2009-05-02T00:00:00Z,28.8425,-94.2433,2.0,308.0689751,3.632795067,-99999.0,'11133222,11111222,99999999' 
TABS,ioos:station:wmo:42050:1,2009-05-02T00:30:00Z,28.8425,-94.2433,2.0,307.0380697,10.92404687,-99999.0,'11111222,11111222,99999999' 
TABS,ioos:station:wmo:42050:1,2009-05-02T01:00:00Z,28.8425,-94.2433,2.0,310.648152,8.013413754,-99999.0,'11133222,11111222,99999999' 
TABS,ioos:station:wmo:42050:1,2009-05-02T01:30:00Z,28.8425,-94.2433,2.0,297.5636606,10.52453324,-99999.0,'11111222,11111222,99999999' 
TABS,ioos:station:wmo:42050:1,2009-05-02T02:00:00Z,28.8425,-94.2433,2.0,289.4599451,8.13467885,-99999.0,'11133222,11111222,99999999' 
TABS,ioos:station:wmo:42050:1,2009-05-02T02:30:00Z,28.8425,-94.2433,2.0,284.2950416,9.679695243,-99999.0,'11133222,11111222,99999999' 
TABS,ioos:station:wmo:42050:1,2009-05-02T03:00:00Z,28.8425,-94.2433,2.0,277.7558959,8.003205608,-99999.0,'11133222,11111222,99999999' 
TABS,ioos:station:wmo:42050:1,2009-05-02T03:30:00Z,28.8425,-94.2433,2.0,280.5031549,12.94691083,-99999.0,'11111222,11111222,99999999' 
TABS,ioos:station:wmo:42050:1,2009-05-02T04:00:00Z,28.8425,-94.2433,2.0,286.8393855,9.424080857,-99999.0,'11133222,11111222,99999999' 
TABS,ioos:station:wmo:42050:1,2009-05-02T04:30:00Z,28.8425,-94.2433,2.0,268.1612326,9.975134084,-99999.0,'11133222,11111222,99999999' 
TABS,ioos:station:wmo:42050:1,2009-05-02T05:00:00Z,28.8425,-94.2433,2.0,290.9504557,7.998781157,-99999.0,'11133222,11111222,99999999' 
TABS,ioos:station:wmo:42050:1,2009-05-02T05:30:00Z,28.8425,-94.2433,2.0,287.6461803,5.740078397,-99999.0,'11133222,11111222,99999999' 
TABS,ioos:station:wmo:42050:1,2009-05-02T06:00:00Z,28.8425,-94.2433,2.0,286.1016857,10.09603883,-99999.0,'11111222,11111222,99999999' 
TABS,ioos:station:wmo:42050:1,2009-05-02T06:30:00Z,28.8425,-94.2433,2.0,274.399116,8.083810982,-99999.0,'11133222,11111222,99999999' 
TABS,ioos:station:wmo:42050:1,2009-05-02T07:00:00Z,28.8425,-94.2433,2.0,267.2700299,8.399529749,-99999.0,'11133222,11111222,99999999' 
TABS,ioos:station:wmo:42050:1,2009-05-02T07:30:00Z,28.8425,-94.2433,2.0,253.1281862,6.374362713,-99999.0,'11133222,11111222,99999999' 
TABS,ioos:station:wmo:42050:1,2009-05-02T08:00:00Z,28.8425,-94.2433,2.0,292.1297,11.68042807,-99999.0,'11111222,11111222,99999999' 
TABS,ioos:station:wmo:42050:1,2009-05-02T08:30:00Z,28.8425,-94.2433,2.0,251.1067759,6.331082056,-99999.0,'11133222,11111222,99999999' 
TABS,ioos:station:wmo:42050:1,2009-05-02T09:00:00Z,28.8425,-94.2433,2.0,260.6908229,7.975023511,-99999.0,'11133222,11111222,99999999' 
TABS,ioos:station:wmo:42050:1,2009-05-02T09:30:00Z,28.8425,-94.2433,2.0,280.2655374,11.61592872,-99999.0,'11111222,11111222,99999999' 
TABS,ioos:station:wmo:42050:1,2009-05-02T10:00:00Z,28.8425,-94.2433,2.0,293.3180748,7.579023684,-99999.0,'11133222,11111222,99999999' 
TABS,ioos:station:wmo:42050:1,2009-05-02T10:30:00Z,28.8425,-94.2433,2.0,312.1268839,3.667424164,-99999.0,'11133222,11111222,99999999' 
TABS,ioos:station:wmo:42050:1,2009-05-02T11:00:00Z,28.8425,-94.2433,2.0,317.7959715,6.668882965,-99999.0,'11133222,11111222,99999999' 
TABS,ioos:station:wmo:42050:1,2009-05-02T11:30:00Z,28.8425,-94.2433,2.0,292.6040226,10.87538505,-99999.0,'11111222,11111222,99999999' 
TABS,ioos:station:wmo:42050:1,2009-05-02T14:00:00Z,28.8425,-94.2433,2.0,266.5151533,8.555816735,-99999.0,'11133222,11111222,99999999' 
TABS,ioos:station:wmo:42050:1,2009-05-02T14:30:00Z,28.8425,-94.2433,2.0,276.157594,8.297867196,-99999.0,'11133222,11111222,99999999' 
TABS,ioos:station:wmo:42050:1,2009-05-02T15:00:00Z,28.8425,-94.2433,2.0,267.8160541,5.774192584,-99999.0,'11133222,11111222,99999999' 
TABS,ioos:station:wmo:42050:1,2009-05-02T15:30:00Z,28.8425,-94.2433,2.0,312.6870081,9.985414363,-99999.0,'11133222,11111222,99999999' 
TABS,ioos:station:wmo:42050:1,2009-05-02T16:00:00Z,28.8425,-94.2433,2.0,292.0298206,11.19751758,-99999.0,'11111222,11111222,99999999' 
TABS,ioos:station:wmo:42050:1,2009-05-02T16:30:00Z,28.8425,-94.2433,2.0,300.7743851,5.179285665,-99999.0,'11133222,11111222,99999999' 
TABS,ioos:station:wmo:42050:1,2009-05-02T17:00:00Z,28.8425,-94.2433,2.0,298.8281945,5.889923599,-99999.0,'11133222,11111222,99999999' 
TABS,ioos:station:wmo:42050:1,2009-05-02T17:30:00Z,28.8425,-94.2433,2.0,283.8574232,5.427973839,-99999.0,'11133222,11111222,99999999' 
TABS,ioos:station:wmo:42050:1,2009-05-02T18:00:00Z,28.8425,-94.2433,2.0,320.9557955,10.6997056,-99999.0,'11111222,11111222,99999999' 
TABS,ioos:station:wmo:42050:1,2009-05-02T18:30:00Z,28.8425,-94.2433,2.0,334.8137276,8.365315296,-99999.0,'11133222,11111222,99999999' 
TABS,ioos:station:wmo:42050:1,2009-05-02T19:00:00Z,28.8425,-94.2433,2.0,306.7014325,9.504041246,-99999.0,'11133222,11111222,99999999' 
TABS,ioos:station:wmo:42050:1,2009-05-02T19:30:00Z,28.8425,-94.2433,2.0,322.1684561,10.48347748,-99999.0,'11111222,11111222,99999999' 
TABS,ioos:station:wmo:42050:1,2009-05-02T20:00:00Z,28.8425,-94.2433,2.0,341.3512165,13.54096747,-99999.0,'11111222,11111222,99999999' 
TABS,ioos:station:wmo:42050:1,2009-05-02T20:30:00Z,28.8425,-94.2433,2.0,3.988472777,5.032186404,-99999.0,'11133222,11111222,99999999' 
TABS,ioos:station:wmo:42050:1,2009-05-02T21:00:00Z,28.8425,-94.2433,2.0,2.313220323,8.176661911,-99999.0,'11133222,11111222,99999999' 
TABS,ioos:station:wmo:42050:1,2009-05-02T21:30:00Z,28.8425,-94.2433,2.0,353.5131471,6.461369824,-99999.0,'11133222,11111222,99999999' 
TABS,ioos:station:wmo:42050:1,2009-05-02T22:00:00Z,28.8425,-94.2433,2.0,12.41762721,5.580546568,-99999.0,'11133222,11111222,99999999' 
TABS,ioos:station:wmo:42050:1,2009-05-02T22:30:00Z,28.8425,-94.2433,2.0,342.9762423,6.42137057,-99999.0,'11133222,11111222,99999999' 
TABS,ioos:station:wmo:42050:1,2009-05-02T23:00:00Z,28.8425,-94.2433,2.0,348.491016,9.021396788,-99999.0,'11133222,11111222,99999999' 
TABS,ioos:station:wmo:42050:1,2009-05-02T23:30:00Z,28.8425,-94.2433,2.0,3.285479251,6.630897375,-99999.0,'11133222,11111222,99999999' 
TABS,ioos:station:wmo:42050:1,2009-05-03T00:00:00Z,28.8425,-94.2433,2.0,5.630880049,7.847865952,-99999.0,'11133222,11111222,99999999' 
TABS,ioos:station:wmo:42050:1,2009-05-03T00:30:00Z,28.8425,-94.2433,2.0,352.4818012,7.948333159,-99999.0,'11133222,11111222,99999999' 
TABS,ioos:station:wmo:42050:1,2009-05-03T01:00:00Z,28.8425,-94.2433,2.0,14.02284394,10.23500366,-99999.0,'11111222,11111222,99999999' 
TABS,ioos:station:wmo:42050:1,2009-05-03T01:30:00Z,28.8425,-94.2433,2.0,356.9838285,8.361584778,-99999.0,'11133222,11111222,99999999' 
TABS,ioos:station:wmo:42050:1,2009-05-03T02:00:00Z,28.8425,-94.2433,2.0,13.72821727,4.508802502,-99999.0,'11133222,11111222,99999999' 
TABS,ioos:station:wmo:42050:1,2009-05-03T02:30:00Z,28.8425,-94.2433,2.0,23.80328266,5.475783049,-99999.0,'11133222,11111222,99999999' 
TABS,ioos:station:wmo:42050:1,2009-05-03T03:00:00Z,28.8425,-94.2433,2.0,340.8474642,8.077091061,-99999.0,'11133222,11111222,99999999' 
TABS,ioos:station:wmo:42050:1,2009-05-03T03:30:00Z,28.8425,-94.2433,2.0,323.2075129,8.916008075,-99999.0,'11133222,11111222,99999999' 
TABS,ioos:station:wmo:42050:1,2009-05-03T04:00:00Z,28.8425,-94.2433,2.0,312.1524971,11.10114409,-99999.0,'11111222,11111222,99999999' 
TABS,ioos:station:wmo:42050:1,2009-05-03T04:30:00Z,28.8425,-94.2433,2.0,355.2365799,7.465788639,-99999.0,'11133222,11111222,99999999' 
TABS,ioos:station:wmo:42050:1,2009-05-03T05:00:00Z,28.8425,-94.2433,2.0,356.4639653,3.566791275,-99999.0,'11133222,11111222,99999999' 
TABS,ioos:station:wmo:42050:1,2009-05-03T05:30:00Z,28.8425,-94.2433,2.0,324.555813,6.431990361,-99999.0,'11133222,11111222,99999999' 
TABS,ioos:station:wmo:42050:1,2009-05-03T06:00:00Z,28.8425,-94.2433,2.0,351.6512336,2.961384811,-99999.0,'11133222,11111222,99999999' 
TABS,ioos:station:wmo:42050:1,2009-05-03T06:30:00Z,28.8425,-94.2433,2.0,313.1485931,6.346061771,-99999.0,'11133222,11111222,99999999' 
TABS,ioos:station:wmo:42050:1,2009-05-03T07:00:00Z,28.8425,-94.2433,2.0,10.96893962,4.94025303,-99999.0,'11133222,11111222,99999999' 
TABS,ioos:station:wmo:42050:1,2009-05-03T07:30:00Z,28.8425,-94.2433,2.0,39.35788099,2.948779409,-99999.0,'11133222,11111222,99999999' 
TABS,ioos:station:wmo:42050:1,2009-05-03T08:00:00Z,28.8425,-94.2433,2.0,348.7839757,3.598735889,-99999.0,'11133222,11111222,99999999' 
TABS,ioos:station:wmo:42050:1,2009-05-03T08:30:00Z,28.8425,-94.2433,2.0,40.20331748,6.088300255,-99999.0,'11133222,11111222,99999999' 
TABS,ioos:station:wmo:42050:1,2009-05-03T09:00:00Z,28.8425,-94.2433,2.0,16.83114847,6.665530737,-99999.0,'11133222,11111222,99999999' 
TABS,ioos:station:wmo:42050:1,2009-05-03T09:30:00Z,28.8425,-94.2433,2.0,31.70743014,4.889836398,-99999.0,'11133222,11111222,99999999' 
TABS,ioos:station:wmo:42050:1,2009-05-03T10:00:00Z,28.8425,-94.2433,2.0,29.60040293,5.405450953,-99999.0,'11133222,11111222,99999999' 
TABS,ioos:station:wmo:42050:1,2009-05-03T10:30:00Z,28.8425,-94.2433,2.0,9.484683776,8.4961403,-99999.0,'11133222,11111222,99999999' 
TABS,ioos:station:wmo:42050:1,2009-05-03T11:00:00Z,28.8425,-94.2433,2.0,13.06016264,8.540919154,-99999.0,'11133222,11111222,99999999' 
TABS,ioos:station:wmo:42050:1,2009-05-03T11:30:00Z,28.8425,-94.2433,2.0,15.61475308,13.56046091,-99999.0,'11111222,11111222,99999999' 
TABS,ioos:station:wmo:42050:1,2009-05-03T12:00:00Z,28.8425,-94.2433,2.0,356.1347583,13.35037078,-99999.0,'11111222,11111222,99999999' 
TABS,ioos:station:wmo:42050:1,2009-05-03T12:30:00Z,28.8425,-94.2433,2.0,9.673048584,12.97445567,-99999.0,'11111222,11111222,99999999' 
TABS,ioos:station:wmo:42050:1,2009-05-03T13:00:00Z,28.8425,-94.2433,2.0,11.66001968,16.37796385,-99999.0,'11111222,11111222,99999999' 
TABS,ioos:station:wmo:42050:1,2009-05-03T13:30:00Z,28.8425,-94.2433,2.0,23.03450387,11.90954239,-99999.0,'11111222,11111222,99999999' 
TABS,ioos:station:wmo:42050:1,2009-05-03T14:00:00Z,28.8425,-94.2433,2.0,20.71902294,8.6493757,-99999.0,'11133222,11111222,99999999' 
TABS,ioos:station:wmo:42050:1,2009-05-03T14:30:00Z,28.8425,-94.2433,2.0,39.43399725,8.092101087,-99999.0,'11133222,11111222,99999999' 
TABS,ioos:station:wmo:42050:1,2009-05-03T21:30:00Z,28.8425,-94.2433,2.0,7.69680267,27.47754174,-99999.0,'11111222,11111222,99999999' 
TABS,ioos:station:wmo:42050:1,2009-05-03T22:00:00Z,28.8425,-94.2433,2.0,14.18399136,25.4250939,-99999.0,'11111222,11111222,99999999' 
TABS,ioos:station:wmo:42050:1,2009-05-03T22:30:00Z,28.8425,-94.2433,2.0,17.05094505,25.13479262,-99999.0,'11111222,11111222,99999999' 
TABS,ioos:station:wmo:42050:1,2009-05-03T23:00:00Z,28.8425,-94.2433,2.0,17.47819728,21.7753186,-99999.0,'11111222,11111222,99999999' 
TABS,ioos:station:wmo:42050:1,2009-05-03T23:30:00Z,28.8425,-94.2433,2.0,11.48180261,23.56149825,-99999.0,'11111222,11111222,99999999' 
TABS,ioos:station:wmo:42050:1,2009-05-04T00:00:00Z,28.8425,-94.2433,2.0,34.87337788,20.55047688,-99999.0,'11111222,11111222,99999999' 
TABS,ioos:station:wmo:42050:1,2009-05-04T00:30:00Z,28.8425,-94.2433,2.0,25.55034715,20.70476515,-99999.0,'11111222,11111222,99999999' 
TABS,ioos:station:wmo:42050:1,2009-05-04T01:00:00Z,28.8425,-94.2433,2.0,12.85014622,21.67277786,-99999.0,'11111222,11111222,99999999' 
TABS,ioos:station:wmo:42050:1,2009-05-04T01:30:00Z,28.8425,-94.2433,2.0,24.00946418,22.36503745,-99999.0,'11111222,11111222,99999999' 
TABS,ioos:station:wmo:42050:1,2009-05-04T02:00:00Z,28.8425,-94.2433,2.0,33.00178729,20.5448047,-99999.0,'11111222,11111222,99999999' 
TABS,ioos:station:wmo:42050:1,2009-05-04T02:30:00Z,28.8425,-94.2433,2.0,13.54415559,20.32523555,-99999.0,'11111222,11111222,99999999' 
TABS,ioos:station:wmo:42050:1,2009-05-04T03:00:00Z,28.8425,-94.2433,2.0,30.02519427,19.78501706,-99999.0,'11111222,11111222,99999999' 
TABS,ioos:station:wmo:42050:1,2009-05-04T03:30:00Z,28.8425,-94.2433,2.0,62.11688301,16.91362173,-99999.0,'11111222,11111222,99999999' 
TABS,ioos:station:wmo:42050:1,2009-05-04T04:00:00Z,28.8425,-94.2433,2.0,60.10116808,15.22655903,-99999.0,'11111222,11111222,99999999' 
TABS,ioos:station:wmo:42050:1,2009-05-04T04:30:00Z,28.8425,-94.2433,2.0,112.2034266,9.526405408,-99999.0,'11133222,11111222,99999999' 
TABS,ioos:station:wmo:42050:1,2009-05-04T05:00:00Z,28.8425,-94.2433,2.0,125.8712956,9.18139423,-99999.0,'11133222,11111222,99999999' 
TABS,ioos:station:wmo:42050:1,2009-05-04T05:30:00Z,28.8425,-94.2433,2.0,148.4800892,8.129415723,-99999.0,'11133222,11111222,99999999' 
TABS,ioos:station:wmo:42050:1,2009-05-04T06:00:00Z,28.8425,-94.2433,2.0,61.73155332,3.610609367,-99999.0,'11133222,11111222,99999999' 
TABS,ioos:station:wmo:42050:1,2009-05-04T06:30:00Z,28.8425,-94.2433,2.0,108.4960537,2.963055855,-99999.0,'11133222,11111222,99999999' 
TABS,ioos:station:wmo:42050:1,2009-05-04T07:00:00Z,28.8425,-94.2433,2.0,165.9635789,2.6387876,-99999.0,'11133222,11111222,99999999' 
TABS,ioos:station:wmo:42050:1,2009-05-04T07:30:00Z,28.8425,-94.2433,2.0,161.7404573,3.095884365,-99999.0,'11133222,11111222,99999999' 
TABS,ioos:station:wmo:42050:1,2009-05-04T08:00:00Z,28.8425,-94.2433,2.0,149.7434231,2.639564358,-99999.0,'11133222,11111222,99999999' 
TABS,ioos:station:wmo:42050:1,2009-05-04T08:30:00Z,28.8425,-94.2433,2.0,185.1942063,2.871793864,-99999.0,'11133222,11111222,99999999' 
TABS,ioos:station:wmo:42050:1,2009-05-04T09:00:00Z,28.8425,-94.2433,2.0,221.6804564,4.030198506,-99999.0,'11133222,11111222,99999999' 
TABS,ioos:station:wmo:42050:1,2009-05-04T09:30:00Z,28.8425,-94.2433,2.0,155.0095419,3.905649754,-99999.0,'11133222,11111222,99999999' 
TABS,ioos:station:wmo:42050:1,2009-05-04T10:00:00Z,28.8425,-94.2433,2.0,195.6849239,5.141458937,-99999.0,'11133222,11111222,99999999' 
TABS,ioos:station:wmo:42050:1,2009-05-04T10:30:00Z,28.8425,-94.2433,2.0,236.4810403,10.19543525,-99999.0,'11111222,11111222,99999999' 
TABS,ioos:station:wmo:42050:1,2009-05-04T11:00:00Z,28.8425,-94.2433,2.0,241.4202457,10.30569745,-99999.0,'11111222,11111222,99999999' 
TABS,ioos:station:wmo:42050:1,2009-05-04T11:30:00Z,28.8425,-94.2433,2.0,234.8561321,9.294218633,-99999.0,'11133222,11111222,99999999' 
TABS,ioos:station:wmo:42050:1,2009-05-04T12:00:00Z,28.8425,-94.2433,2.0,234.0754289,11.02750198,-99999.0,'11111222,11111222,99999999' 
TABS,ioos:station:wmo:42050:1,2009-05-04T12:30:00Z,28.8425,-94.2433,2.0,226.4767628,17.55622397,-99999.0,'11111222,11111222,99999999' 
TABS,ioos:station:wmo:42050:1,2009-05-04T13:00:00Z,28.8425,-94.2433,2.0,218.7718989,11.14614283,-99999.0,'11111222,11111222,99999999' 
TABS,ioos:station:wmo:42050:1,2009-05-04T13:30:00Z,28.8425,-94.2433,2.0,208.5777768,16.93301214,-99999.0,'11111222,11111222,99999999' 
TABS,ioos:station:wmo:42050:1,2009-05-04T14:00:00Z,28.8425,-94.2433,2.0,209.1994641,13.03664067,-99999.0,'11111222,11111222,99999999' 
TABS,ioos:station:wmo:42050:1,2009-05-04T14:30:00Z,28.8425,-94.2433,2.0,207.1420452,17.7552809,-99999.0,'11111222,11111222,99999999' 
TABS,ioos:station:wmo:42050:1,2009-05-04T15:00:00Z,28.8425,-94.2433,2.0,198.6798962,15.51743858,-99999.0,'11111222,11111222,99999999' 
TABS,ioos:station:wmo:42050:1,2009-05-04T15:30:00Z,28.8425,-94.2433,2.0,205.0755,14.10988306,-99999.0,'11111222,11111222,99999999' 
TABS,ioos:station:wmo:42050:1,2009-05-04T16:00:00Z,28.8425,-94.2433,2.0,213.0992548,12.37879235,-99999.0,'11111222,11111222,99999999' 
TABS,ioos:station:wmo:42050:1,2009-05-04T16:30:00Z,28.8425,-94.2433,2.0,205.371292,7.514818694,-99999.0,'11133222,11111222,99999999' 
TABS,ioos:station:wmo:42050:1,2009-05-04T17:00:00Z,28.8425,-94.2433,2.0,202.8748488,11.39626693,-99999.0,'11111222,11111222,99999999' 
TABS,ioos:station:wmo:42050:1,2009-05-04T17:30:00Z,28.8425,-94.2433,2.0,209.1506912,13.28235295,-99999.0,'11111222,11111222,99999999' 
TABS,ioos:station:wmo:42050:1,2009-05-04T18:00:00Z,28.8425,-94.2433,2.0,211.9357607,13.13868334,-99999.0,'11111222,11111222,99999999' 
TABS,ioos:station:wmo:42050:1,2009-05-04T18:30:00Z,28.8425,-94.2433,2.0,209.0185433,13.99720329,-99999.0,'11111222,11111222,99999999' 
TABS,ioos:station:wmo:42050:1,2009-05-04T19:00:00Z,28.8425,-94.2433,2.0,200.1213588,13.42968726,-99999.0,'11111222,11111222,99999999' 
TABS,ioos:station:wmo:42050:1,2009-05-04T19:30:00Z,28.8425,-94.2433,2.0,198.0470834,12.62093895,-99999.0,'11111222,11111222,99999999' 
TABS,ioos:station:wmo:42050:1,2009-05-04T20:00:00Z,28.8425,-94.2433,2.0,210.9249841,12.76464257,-99999.0,'11111222,11111222,99999999' 
TABS,ioos:station:wmo:42050:1,2009-05-04T20:30:00Z,28.8425,-94.2433,2.0,225.7178695,17.48812454,-99999.0,'11111222,11111222,99999999' 
TABS,ioos:station:wmo:42050:1,2009-05-04T21:00:00Z,28.8425,-94.2433,2.0,240.117368,20.17182689,-99999.0,'11111222,11111222,99999999' 
TABS,ioos:station:wmo:42050:1,2009-05-04T21:30:00Z,28.8425,-94.2433,2.0,258.5907027,27.24841647,-99999.0,'11111222,11111222,99999999' 
TABS,ioos:station:wmo:42050:1,2009-05-04T22:00:00Z,28.8425,-94.2433,2.0,240.4444408,20.23265677,-99999.0,'11111222,11111222,99999999' 
TABS,ioos:station:wmo:42050:1,2009-05-04T22:30:00Z,28.8425,-94.2433,2.0,239.2143518,18.17036323,-99999.0,'11111222,11111222,99999999' 
TABS,ioos:station:wmo:42050:1,2009-05-04T23:00:00Z,28.8425,-94.2433,2.0,237.7655672,17.79220616,-99999.0,'11111222,11111222,99999999' 
TABS,ioos:station:wmo:42050:1,2009-05-04T23:30:00Z,28.8425,-94.2433,2.0,238.8137661,14.1555996,-99999.0,'11111222,11111222,99999999' 
TABS,ioos:station:wmo:42050:1,2009-05-05T00:00:00Z,28.8425,-94.2433,2.0,239.6077566,17.35480625,-99999.0,'11111222,11111222,99999999' 
TABS,ioos:station:wmo:42050:1,2009-05-05T00:30:00Z,28.8425,-94.2433,2.0,240.9832868,17.46178112,-99999.0,'11111222,11111222,99999999' 